{"data":{"norad_id":45062,"epoch":"2026-05-24T13:22:07.989024Z","epoch_age_seconds":113492,"freshness":"FRESH","line1":"1 45062U 20006U   26144.55703691  .00057417  00000+0  42712-3 0  9990","line2":"2 45062  53.0413 235.3919 0001936 301.5973  58.4855 15.72272837348895","mean_motion":15.72272837,"eccentricity":0.0001936,"inclination_deg":53.0413,"raan_deg":235.3919,"arg_perigee_deg":301.5973,"mean_anomaly_deg":58.4855,"bstar":0.00042712,"rev_number":34889,"period_min":91.587157528436,"perigee_km":351.09982316672,"apogee_km":353.70588819884,"semimajor_km":6730.5398556828,"source":"CELESTRAK","updated_at":"2026-05-25T13:38:16.378201Z"}}